闪电 1-87星 (MOLNIYA 1-87)

导读 | 星芒AI

MOLNIYA 1-87 是一颗俄罗斯(前苏联)的通信卫星,属于 MOLNIYA 系列,于1987年发射。该卫星运行在高度椭圆轨道(HEO)上,设计用于在高纬度地区提供通信服务。MOLNIYA 系列卫星因其轨道特性,特别适用于俄罗斯等高纬度国家的通信和广播需求。MOLNIYA 1-87 在轨期间执行了多种通信任务,为地面用户提供稳定的信号传输。该卫星体现了苏联在20世纪后期在航天通信领域的技术实力。

基本信息
目录编号:
22949
目录名称:
MOLNIYA 1-87
国际标识:
1993-079A
轨道中心:
EARTH
卫星名称:
闪电 1-87星
卫星全名:
闪电 1-87星 (MOLNIYA 1-87)
卫星状态:
在轨 (已飞行11679 天)
发射日期:
1993-12-22 UTC
国别 :
俄罗斯(独联体) (CIS)
星等 :
--
轨道信息
数据来源 国际轨道数据 AOE轨道数据
星历时间 2025-12-08T16:53:18+0800
5天前
查看轨道信息
2025-12-10T01:00:00+0800
3天前
查看轨道信息
半长轴 26358.199km 26358.052km
偏心率 0.6862888 0.686259
轨道倾角 64.976° 64.976°
近地点辐角 271.643° 271.626°
升交点赤经 303.927° 303.777°
平近点角 17.477° 274.686°
近地点 1890.727km 1891.466km
远地点 38069.401km 38068.368km
周期 709.796分钟 709.790分钟
每日圈数 2.028753 2.02877
详细信息
平衡模式:
三轴稳定
覆盖范围:
全球
运营商:
俄罗斯国家航天集团
运营商所在国:
俄罗斯
制造商(研发单位):
普里克拉德诺伊·梅哈尼基设计局
制造商所在国:
俄罗斯联邦
使用方式:
暂无
卫星简介
闪电(Molniya (Satellite))系列卫星是苏联/俄罗斯于1965年至2004年间发射的军事和通信卫星。这些卫星使用高度偏心的椭圆轨道,称为Molniya轨道(即闪电轨道),在高纬度地区具有较长的停留时间。该卫星状态未知。
2D轨道图
3D轨道图
轨道高度分析图
轨道倾角分析图
轨道综合分析图
查看轨道综合分析图